DECAYED
Showing default

HAWK-4C, 52170 (Decayed)

Orbit data source: Space-Track

HAWK-4C, 52170 was a payload satellite owned by HawkEye 360 (US) in LEO that was launched on Fri, 01 Apr 2022 UTC via an FALCON 9 launch vehicle from the Air Force Eastern Test Range (AFETR). Payload-class satellites include a variety of spacecraft equipped with specific instruments for various scientific and technological missions. These include communications satellites like Starlink; space stations such as the ISS; scientific satellites like the Hubble; Earth observation satellites from companies like Planet Labs, Umbra, and HawkEye 360; GPS; miniature CubeSats for education and research; and military/defense satellites.

Not visible in the next 10 days
Identifier
52170, 2022-033P
Orbit
Decayed
Country
Flag of USUS
Related business
Manufacturer
UTIAS-SFL
Mission
Decayed Commercial Sigint
Bus & Motor
DEFIANT, Unknown motor
Mass
31 kg wet, 30 kg dry
Launch date (UTC)
2022-04-01 (4 years ago)
Launch vehicle
FALCON 9
Launch site
Air Force Eastern Test Range (AFETR)
Object type
Payload
Rocket body
Debris
Shape & HBR
Box + 2 Pan, 1.0 m
Radar Cross Section
0.348 m², Medium (>0.1 m² and < 1m²)

Expand to show TLE details & history
Last TLE update: 3 months ago

TLE from 3 months ago
0 HAWK-4C
1 52170U 22033P   25244.71916159  .13302336  25304-5  22083-3 0  9999
2 52170  97.2724 347.9726 0009923 258.4424 101.5766 16.47598125192251
Epoch: 2025-09-01T17:15Z
TLE epoch observation values (Epoch: 2025-09-01T17:15:35.561Z)
Latitude
-0.00001°
Longitude
107.95371°
Altitude
150.239 km
Speed
7.815 km/s
True Right ascension
23h 11m 53s
True Declination
0° 00' 00"
Sunlit
Object was in full shadow at epoch
Visualization orbit readout
Latitude
Unknown
Longitude
Unknown
Altitude
Unknown
Speed
Unknown
Apparent Right ascension
Unknown
Apparent Declination
Unknown
Sunlit
N/A
Visualization observer readout
Local Sidereal Time
04:23:23
Azimuth
Unknown
Elevation
Unknown
Doppler factor
Unknown
Orbital elements
Apogee altitude
148.931 km
Perigee altitude
135.99 km
Semi-major axis
6,520.597 km
Eccentricity
0.00099
Inclination
97.2724°
RAAN
347.9726°
Arg. of periapsis
258.4424°
True anomaly
101.68797°
Mean anomaly
101.5766°
Eccentric anomaly
101.63229°
Mean motion
4.12204 °/min
Orbital period
87.34 mins
BSTAR
0.00022083
Loading maneuver chart data...
Computing Atmospheric mass density...

Documentation

Showing up to 5 results
|